Hourly Data Report for October 25, 2016

All times are specified in Local Standard Time (LST). Add 1 hour to adjust for Daylight Saving Time where and when it is observed.

EUREKA CLIMATE
NUNAVUT

79°59'21.000" N
85°56'02.000" W
10.00 m
2401199
71613
NEK

Download Data

Hourly Data (October 2016)
Hourly Data Report for October 25, 2016
Temp Definition
°C
Dew Point Temp Definition
°C
Rel Hum Definition
%
Wind Dir Definition
10's deg

Wind Spd Definition
km/h
Visibility Definition
km
Stn Press Definition
kPa
Hmdx Definition


Wind Chill Definition


Weather Definition


TIME
00:00 -13.6 -17.0 76 6 18   101.63   -22 LegendNANA
01:00 -15.8 -17.6 87 28 31   101.62   -27 LegendNANA
02:00 -16.3 -17.9 88 29 29   101.62   -28 LegendNANA
03:00 -16.0 -17.6 88 28 28   101.59   -27 LegendNANA
04:00 -16.5 -18.1 88 28 25   101.54   -27 LegendNANA
05:00 -16.3 -17.9 87 29 23   101.53   -26 LegendNANA
06:00 -16.5 -17.9 89 28 21   101.47   -26 LegendNANA
07:00 -16.4 -17.9 88 27 17   101.41   -25 LegendNANA
08:00 -16.6 -18.9 82 28 20   101.34   -26 LegendNANA
09:00 -16.5 -18.5 84 28 18   101.28   -26 LegendNANA
10:00 -15.4 -17.7 82 29 17   101.21   -24 LegendNANA
11:00 -14.7 -17.7 78 27 17   101.17   -23 LegendNANA
12:00 -15.0 -17.5 81 27 16   101.12   -23 LegendNANA
13:00 -15.2 -17.7 82 21 8   101.09   -21 LegendNANA
14:00 -15.4 -17.9 81 18 15   101.02   -23 LegendNANA
15:00 -15.9 -18.0 84 26 13   101.02   -23 LegendNANA
16:00 -15.8 -18.9 77 32 17   100.97   -24 LegendNANA
17:00 -16.2 -19.8 74 31 5   100.96   -20 LegendNANA
18:00 -17.1 -20.6 74 4 12   100.94   -25 LegendNANA
19:00 -17.1 -20.7 74 36 9   100.89   -23 LegendNANA
20:00 -16.7 -20.1 75 13 4   100.84   -20 LegendNANA
21:00 -17.3 -20.3 78 3 12   100.85   -25 LegendNANA
22:00 -17.4 -20.3 78 2 18   100.84   -27 LegendNANA
23:00 -17.3 -20.5 76 36 14   100.82   -25 LegendNANA

Notes on Data Quality.

Legend

  • E = Estimated
  • M = Missing
  • NA = Not Available
  • ‡ = Partner data that is not subject to review by the National Climate Archives
Date modified: